Regional Weather Roundup
Issued by NWS

Home | Current Version | Previous Version | Graphics & Text | Print | Product List | Glossary On
Versions: 1 2 3 4 5 6 7 8 9 10 11 12 13 14 15 16 17 18 19 20 21 22 23 24 25 26 27 28 29 30 31 32 33 34 35 36 37 38 39 40 41 42 43 44 45 46 47 48 49 50
000
ASUS43 KTOP 251059
RWRKS

WEATHER ROUNDUP FOR KANSAS
NATIONAL WEATHER SERVICE GOODLAND KS
500 AM CST SUN FEB 25 2018

NOTE:  "FAIR" INDICATES FEW OR NO CLOUDS BELOW 12,000 FEET WITH NO
SIGNIFICANT WEATHER AND/OR OBSTRUCTIONS TO VISIBILITY.

KSZ001>006-013>018-027>032-041>047-251200-
NORTHWEST KANSAS

CITY           SKY/WX    TMP DP  RH WIND       PRES   REMARKS
GOODLAND       MOCLDY    22  11  62 SW10      29.87F WCI  11
HAYS           CLOUDY    18  12  77 CALM      29.96S
HILL CITY      CLEAR     16  11  80 NW6       29.94F
RUSSELL        PTCLDY    20  13  74 W5        29.95S
$$

KSZ061>065-074>080-084>089-251200-
SOUTHWEST KANSAS

CITY           SKY/WX    TMP DP  RH WIND       PRES   REMARKS
DODGE CITY     CLOUDY    24   7  48 E6        29.93F
GARDEN CITY    CLOUDY    22   8  55 NE5       29.93R
GREAT BEND     CLEAR     14  10  84 W6        29.96S
LIBERAL        CLEAR     20  12  71 NE6       29.92R
$$

KSZ066>073-081>083-090>101-251200-
SOUTHEAST KANSAS

CITY           SKY/WX    TMP DP  RH WIND       PRES   REMARKS
CHANUTE        CLEAR     23  21  92 CALM      30.01S
COFFEYVILLE    CLEAR     28  27  96 CALM      30.02S FOG
HUTCHINSON     CLEAR     19  15  84 SE3       29.97S
MEDICINE LODGE   N/A     25  18  74 S6        29.97R
NEWTON         CLEAR     26  19  74 N5        29.98S
PARSONS        PTCLDY    25  24  96 CALM      30.02S
WICHITA INTL   CLEAR     23  22  96 CALM      29.98S
WICHITA JABRA  CLEAR     24  18  77 CALM      29.98S
WICHITA MCCONL CLEAR     28  20  73 CALM      29.98S
WINFIELD       CLEAR     26  25  96 CALM      30.01R
$$

KSZ007>012-019>026-033>040-048>060-102>105-251200-
NORTHEAST KANSAS

CITY           SKY/WX    TMP DP  RH WIND       PRES   REMARKS
CONCORDIA      CLEAR     24  17  74 W8        29.95S
EMPORIA        CLEAR     26  18  71 W3        29.99R
LAWRENCE       CLEAR     23  21  92 W5        29.99S
MANHATTAN      CLEAR     19  16  88 CALM      29.98F
OLATHE IND     CLEAR     22  20  92 S6        29.99R
OLATHE EXE     CLEAR     24  23  96 SW5       29.98R
SALINA         CLEAR     25  17  72 W3        29.98F
TOPEKA BILLARD CLEAR     25  22  88 S3        29.99S
TOPEKA FORBES  CLEAR     24  20  84 SE5       29.98R
$$



USA.gov is the U.S. government's official web portal to all federal, state and local government web resources and services.